Weather Roundup
Issued by NWS Springfield, MO

Home | Current Version | Previous Version | Text Only | Print | Product List | Glossary On
Versions: 1 2 3 4 5 6 7 8 9 10 11 12 13 14 15 16 17 18 19 20 21 22 23 24 25 26 27 28 29 30 31 32 33 34 35 36 37 38 39 40 41 42 43 44 45 46 47 48 49 50
000
NZUS99 KSGF 251307
HRRSGF

HOURLY WEATHER
NATIONAL WEATHER SERVICE SPRINGFIELD MO
800 AM CDT SAT MAR 25 2017

......SGF CWA......

CITY           SKY/WX    TMP DP  RH WIND       PRES   REMARKS
SPRINGFIELD    RAIN      53  51  93 S12       29.78R
JOPLIN         CLOUDY    52  52 100 NW14G21   29.80R
WEST PLAINS    CLOUDY    55  53  93 SE9       29.83R
ROLLA          PTSUNNY   53  51  93 SE17G29   29.78F
OSAGE BEACH    CLEAR    N/A N/A N/A SE7       29.80R
BRANSON        TSTM      52  52 100 CALM      29.80R

......SURROUNDING SGF CWA......

CITY           SKY/WX    TMP DP  RH WIND       PRES   REMARKS
CHANUTE        CLOUDY    46  44  93 NW16      29.85S
PARSONS        LGT RAIN  47  45  93 NW13      29.86R
COFFEYVILLE    LGT RAIN  47  46  97 NW18G24   29.86R
EMPORIA        LGT RAIN  43  42  97 NW12G25   29.87R
GROVE OK       CLOUDY    54  52  94 W8G17     29.81R
ROGERS AR      CLOUDY    53  52  96 NE5       29.78R
SILOAM SPRINGS CLOUDY    54  48  82 NW9       29.78R
HARRISON AR    CLOUDY    54  54 100 SE6       29.78S
NEAR YELLVILLE CLOUDY    55  48  76 SE6       29.78S

......KANSAS AND MISSOURI......

CITY           SKY/WX    TMP DP  RH WIND       PRES   REMARKS
KANSAS CTY INT FOG       53  53 100 N9        29.80R VSB 1/4
DOWNTOWN KC    CLOUDY    55  51  86 CALM      29.79R
COLUMBIA       CLOUDY    52  52 100 E7        29.80R
SEDALIA        CLEAR     50  49  96 SE5       29.79R
ST JOSEPH      LGT RAIN  49  49 100 N13       29.84R FOG
ST LOUIS       CLOUDY    58  53  84 S13       29.85R
SPIRIT OF STL  CLOUDY    56  53  90 VRB7      29.83S
KIRKSVILLE     RAIN      54  53  97 NE10      29.81R VSB 1
WICHITA        CLOUDY    43  42  97 N23G30    29.91R
TOPEKA         RAIN      44  44 100 NW13      29.84R FOG
OLATHE         CLOUDY    47  47 100 NW6       29.79R FOG

......TENNESSEE......

CITY           SKY/WX    TMP DP  RH WIND       PRES   REMARKS
MEMPHIS        CLOUDY    60  58  92 S12       29.94R
NASHVILLE      CLOUDY    66  52  60 S16G25    30.09R

......ARKANSAS.......

CITY           SKY/WX    TMP DP  RH WIND       PRES   REMARKS
FAYETTEVILLE   CLOUDY    52  52 100 SW7       29.78R
FT SMITH       MOCLDY    56  49  77 SW14      29.80R
LITTLE ROCK    PTSUNNY   59  59 100 S14       29.85R

......OKLAHOMA.......

CITY           SKY/WX    TMP DP  RH WIND       PRES   REMARKS
TULSA          CLOUDY    50  47  89 NW13      29.86R
PONCA CITY     CLOUDY    46  40  79 NW16      29.92R
MCALESTER      CLOUDY    53  46  77 NW14      29.91R
OKLAHOMA CITY  CLOUDY    47  42  83 NW17      29.94R

......IOWA............

CITY           SKY/WX    TMP DP  RH WIND       PRES   REMARKS
DES MOINES     LGT RAIN  41  39  93 N16G23    29.94S FOG
QUAD CITIES    LGT RAIN  43  40  89 NE16      29.91F FOG

......ILLINOIS........

CITY           SKY/WX    TMP DP  RH WIND       PRES   REMARKS
QUINCY         LGT RAIN  57  56  96 S6        29.83R FOG
CHICAGO        DRIZZLE   42  39  89 NE14      30.05S



USA.gov is the U.S. government's official web portal to all federal, state and local government web resources and services.